Location: Asheville, NC
(35.6000°N, 82.5500°W)
Time: 00:07:12
(UTC-05:00)

N. Korean satellite - Pass Details

Date: 13 December 2017
Orbit: 459 x 515 km, 97.2° (Epoch: 19 January)

Event Time Altitude Azimuth Distance (km) Brightness Sun altitude
Rises 18:17:10 0° 158° (SSE) 2,572 10.2 -11.8°
Reaches altitude 10° 18:19:14 10° 154° (SSE) 1,702 9.3 -12.2°
Maximum altitude 18:22:50 56° 76° (ENE) 607 6.7 -12.9°
Drops below altitude 10° 18:26:31 10° 358° (N) 1,737 9.2 -13.6°
Sets 18:28:39 0° 354° (N) 2,631 10.2 -14.0°
